This demonstration page uses our WeatherBlox Daily Observations layout. Learn more.

Left ArrowRight Arrow

34.16533, -84.80231

Hourly Observations for March 8, 2017

Temp ( °F °C ) Dew Point ( °F °C ) Humidity (%) Winds ( mph kmh ) Pressure ( in mb ) Visibility ( mi km ) Precip ( " mm )
12:53 am 00:53 Cloudy with Mist and Fog 58 14.4 57 13.9 97 97 Calm 30.20 1023 6 10 0.00 0.03
1:08 am 01:08 Cloudy with Light Rain 58 14.4 57 13.9 97 97 Calm 30.24 1024 3 5 0.01 0.25
1:20 am 01:20 Cloudy with Light Rain 58 14.4 57 13.9 97 97 Calm 30.24 1024 5 8 0.02 0.51
1:30 am 01:30 Cloudy with Light Rain 57 13.9 56 13.3 96 96 Calm 30.24 1024 2 3 0.06 1.52
1:34 am 01:34 Cloudy with Light Rain 57 13.9 56 13.3 96 96 Calm 30.24 1024 3 5 0.06 1.52
1:46 am 01:46 Cloudy 56 13.3 55 12.8 97 97 Calm 30.24 1024 10 16 0.06 1.52
1:53 am 01:53 Cloudy 56 13.3 55 12.8 97 97 VRB 5 7 30.24 1024 10 16 0.06 1.52
2:16 am 02:16 Cloudy 55 12.8 54 12.2 96 96 Calm 30.27 1025 9 14 0.00 0.00
2:47 am 02:47 Cloudy 54 12 52 11 94 94 Calm 30.27 1025 10 16 0.00 0.00
2:53 am 02:53 Cloudy 54 12.2 52 11.1 93 93 VRB 3 6 30.26 1025 10 16 0.00 0.00
3:53 am 03:53 Cloudy 52 11.1 47 8.3 83 83 Calm 30.27 1025 10 16 0.00 0.00
4:53 am 04:53 Clear 50 10 45 7.2 83 83 Calm 30.28 1025 10 16 0.00 0.00
5:53 am 05:53 Clear 47 8.3 42 5.6 83 83 Calm 30.29 1026 10 16 0.00 0.00
6:53 am 06:53 Clear 45 7.2 41 5 86 86 Calm 30.32 1027 10 16 0.00 0.00
7:53 am 07:53 Sunny 48 8.9 42 5.6 80 80 Calm 30.32 1027 10 16 0.00 0.00
8:53 am 08:53 Sunny 51 10.6 41 5 69 69 Calm 30.33 1027 10 16 0.00 0.00
9:53 am 09:53 Sunny 55 12.8 39 3.9 55 55 VRB 6 9 30.35 1028 10 16 0.00 0.00
10:53 am 10:53 Sunny 58 14.4 39 3.9 50 50 undefined N/A 30.36 1028 10 16 0.00 0.00
11:53 am 11:53 Sunny 62 16.7 27 -2.8 26 26 undefined N/A 30.37 1028 10 16 0.00 0.00
12:53 pm 12:53 Sunny 64 17.8 21 -6.1 19 19 undefined N/A 30.34 1028 10 16 0.00 0.00
1:53 pm 13:53 Sunny 65 18.3 24 -4.4 21 21 undefined N/A 30.31 1026 10 16 0.00 0.00
2:53 pm 14:53 Sunny 66 18.9 21 -6.1 18 18 undefined N/A 30.29 1026 10 16 0.00 0.00
3:53 pm 15:53 Sunny 67 19.4 23 -5 19 19 undefined N/A 30.28 1025 10 16 0.00 0.00
4:53 pm 16:53 Sunny 67 19.4 27 -2.8 22 22 undefined N/A 30.27 1025 10 16 0.00 0.00
5:53 pm 17:53 Sunny 63 17.2 26 -3.3 25 25 undefined N/A 30.27 1025 10 16 0.00 0.00
6:53 pm 18:53 Clear 53 11.7 36 2.2 52 52 undefined N/A 30.28 1025 10 16 0.00 0.00
7:53 pm 19:53 Clear 47 8.3 36 2.2 66 66 undefined N/A 30.28 1026 10 16 0.00 0.00
8:53 pm 20:53 Clear 46 7.8 34 1.1 63 63 undefined N/A 30.30 1026 10 16 0.00 0.00
9:53 pm 21:53 Clear 42 5.6 35 1.7 76 76 undefined N/A 30.30 1026 10 16 0.00 0.00
10:53 pm 22:53 Clear 43 6.1 35 1.7 74 74 undefined N/A 30.30 1026 10 16 0.00 0.00
11:53 pm 23:53 Clear 38 3.3 34 1.1 86 86 undefined N/A 30.30 1026 10 16 0.00 0.00

Powered by AerisWeather